Погода в Патане

Непал     27°38′31″N   85°21′48″E
темп.,
°C
ветер,
м/с
пор.,
м/с
влажн.,
%
обл.,
%
осадки,
мм/ч
давл.,
гПа
погр.,
м
12 апреля, пн
пн1223:45+16вюв219100 0.0 101513
02:45+15вюв2210100 0.0 101415
05:45+14вюв32110 0.0 101518
08:45+25вюв2260 0.0 10151594
11:45+30юз1250 0.0 10124044
14:45+30зюз5350 0.0 10094487
17:45+26юз3470 0.0 1010172
20:45+17ююв22110 0.0 101512
13 апреля, вт
вт1323:45+16вюв22110 0.0 101415
02:45+16вюв32120 0.0 101318
05:45+15вюв33130 0.0 101421
08:45+27вюв2371 0.0 10132036
11:45+31з34635 0.0 10104925
14:45+31зюз5472 0.0 10074768
17:45+27зюз3491 0.0 1008138
20:45+19ю12139 0.0 101212
14 апреля, ср
ср1423:45+18юв11160 0.0 101214
02:45+17вюв22171 0.0 101116
05:45+16вюв32173 0.0 101217
08:45+28всв1292 0.0 10112109
11:45+31зсз43861 0.0 10094790
14:45+31зюз53810 0.0 10064654
17:45+28юз351164 0.0 1006263
20:45+20юв221828 0.0 101015
15 апреля, чт
чт1523:45+18вюв33220 0.0 101022
02:45+18вюв3323100 0.0 100921
05:45+17вюв32235 0.0 101018
08:45+29в12101 0.0 10092221
11:45+32зюз46830 0.0 10074831
14:45+31зюз6511100 0.0 10044197
17:45+27зсз6814100 0.0 10061085
20:45+19вюв1127100 0.0 100911
16 апреля, пт
пт1623:45+18вюв33282 0.0 100921
02:45+17вюв22261 0.0 100816
05:45+17вюв22250 0.0 100913
08:45+28з12140 0.0 10091384
11:45+31з441134 0.0 10064523
14:45+30юз661675 0.0 10043935
17:45+23ссз482990 0.2 10071383
20:45+13вюв578198 0.4 1012120